AQI (30)

Current Conditions for Foresthill, CA. Mostly Cloudy, Showers in the area   
Visibility: 1 mile
Cloud ht: 100 ft Foresthill Advisory text:

  Summary / Temperature 

Current Temperature
43.1°F
6.2°C
(24/hr Ago)
44.0°F
(Apparent temp)
41.3°F
Cool
Wind Chill Graphs
43.1°F 
Wind Chill-Avg
41.5°F 5.3°C
 --- Virtual Temp: 45.0°F ---

 Temp Rate:

 24/hr Difference:

 Avg Running Temp:

 Todays High:

 Todays Low:

 Y-days High:

 Y-days Low:

 Todays WChill:

 Y-days WChill:

 Evapotranspiration:

+1.4°F/hr 

-0.9°F

41.8°F

43.1°F 11:51am

35.3°F 5:01am

45.3°F 12:53pm

33.6°F 5:20am

23.1°F 4:34am

22.4°F 6:33am

0.006 in

115' Above Ground

 Temperature:

 6'AGL VRS 115'AGL:

 Avg Running Temp:

 Humidity:

 Todays High:

 Todays Low:

 Y-days High:

 Y-days Low:

43.0°F 

-0.1°F

41.9°F

95% 

43.0°F 11:25am

35.0°F 4:16am

47.0°F 12:47pm

36.0°F 1:26am

Temp & Humidity Graphs

  Wind 

Wind Speed

 Calm

Gusting to

 None

Calm

125°  

Calm

 Avg speed:

 Wind Run:

 Peak Gust:

Calm 

77.0 miles

  28.0 mph 4:29am

  Almanac  

Moon age: 5 days,6 hours,43 minutes,29%

Waxing Crescent
28%
Illuminated
5 days in cycle

 Moonrise:

 Moonset:

 Sunrise:

 Sunset:

 Solar Noon:

10:29am

10:50pm

7:14am

5:10pm

12:15pm

1min 43s more daylight tomorrow 

  Solar Radiation 

(Current Solar)
  142 W/m2 (25%)
(Todays High)
 156 W/m2@10:42am
Feels like: 46.4°F in the sun

Rain

 Rain Today:

 Rain Rate (/hr):

 Rain last hour:

 Rain Yesterday:

 This Month:

 Season Total:

2 Days Since Last Rain Day

0.58 in

0.024 in

0.01 in

0.00 in

7.47 in

20.78 in

Updated Time

Updated: 1/22/18  11:54am

(Updated  sec ago)

Humidity & Barometer

 Humidity:

 Wetbulb:

 Dew Point:

 Barometer:

96% 

42.6°F 

42.0°F 

30.395 inHg 

 Baro Trend:  Steady 
Northern Calif
Preparedness
Fire 
Level 

    UV Index  

(Current UV)
0.7  Low
(Todays High) @ 11:22am
0.8   Low

National Weather Service Forecast

Today

Today: Scattered Rain Showers
Scattered Rain Showers
Tonight

Tonight: Partly Cloudy
Partly Cloudy
Tuesday

Tuesday: Mostly Sunny
Mostly Sunny
Tuesday
Night
Tuesday Night: Partly Cloudy then Slight Chance Light Rain
Partly Cloudy
Wednesday

Wednesday: Rain
Rain
Wednesday
Night
Wednesday Night: Rain then Rain And Snow Showers Likely
Rain then Rain And Snow Showers Likely
Hi 47 °F Lo 35 °F Hi 53 °F Lo 40 °F Hi 51 °F Lo 37 °F

Foresthill Probe 2 Stats  
Foresthill Probe 2: is located on Thomas Street
at 3000 feet. The main Foresthill Weather site
is located on Melody ln at the 2860 foot elevation

Calm
42.9°F
6.1°C
Temp Rate:
+1.5°F
Calm
Gusting to
1.0 mph
(Humidity)
98%
Wind from SE
131°  SE
Updated: 22/01/18 - 11:50:48
 Todays High: 42.9°F 11:50
 Todays Low: 34.7°F 04:47
 Rain Today: 0.48 in
 Season Total: 21.46 in

Foresthill Wx: Monthly,Yearly, Highs and Lows 

Foresthill  
This Weather Data is coming from the main Foresthill
Weather site located on Melody ln at the 2860 foot
elevation
Not Foresthill Probe 2
Weather Data
Month
  High
Month
  Low
Year
High
Year
Low
Temp 63.0°F
1/14/18
31.2°F
1/20/18
63.0°F
1/14/18
31.2°F
1/20/18
Humidity 100%
1/8/18
37%
1/1/18
100%
1/8/18
37%
1/1/18
Heat Index 64.3°F
1/14/18
36.3°F
1/21/18
64.3°F
1/14/18
36.3°F
1/21/18
Wind Chill 63.0°F
1/14/18
21.7°F
1/20/18
63.0°F
1/14/18
21.7°F
1/20/18
Wind Gust 31 mph
1/16/18
0 mph
1/1/18
31 mph
1/16/18
0 mph
1/1/18
Barometer 30.45 in
1/21/18
29.63 in
1/9/18
30.45 in
1/21/18
29.63 in
1/9/18
ET 0.08 in
1/1/18
0.00 in
1/1/18
0.08 in
1/1/18
0.00 in
1/1/18
Dew Point 52.5°F
1/5/18
23.8°F
1/21/18
52.5°F
1/5/18
23.8°F
1/21/18
Pacific Satellite US Radar Satellite Imagery Sacramento,CA.  (click to enlarge)
NWS Weather Forecast - Summary
Updated: Mon Jan 22 2018 .DISC - 4:19am (PST)
Current Interstate Highway Conditions for I-80 & US-50

[I 80: IN THE SAN FRANCISCO BAY AREA - SOLANO CO]
no traffic restrictions are reported for this area.


[I 80: IN THE NORTHERN CALIFORNIA AREA & SIERRA NEVADA]
no traffic restrictions are reported for this area.
[business 80 - capital city freeway]
no traffic restrictions are reported for this area.

[US 50: IN THE SACRAMENTO VALLEY & THE LAKE TAHOE BASIN]
no traffic restrictions are reported for this area.
[capital city freeway]
no traffic restrictions are reported for this area.
NWS Weather Forecast: Today and Tonight (Updated: Mon, 22-Jan-2018 2:41am PST)
Today

Today: Scattered Rain Showers
Scattered Rain Showers

Hi 47 °F
NWS forecast: Scattered rain showers before 4pm. Mostly cloudy. High near 47, with temperatures falling to around 42 in the afternoon. South southeast wind 2 to 6 mph. Chance of precipitation is 30%. New rainfall amounts less than a tenth of an inch possible.
Tonight

Tonight: Partly Cloudy
Partly Cloudy

Lo 35 °F
NWS forecast: Partly cloudy, with a low around 35. East southeast wind 2 to 8 mph.
YR.NO 10 Day Weather forecast
Last update: 01/21/2018 @ 23:33
Next update: 01/22/2018 @ 12:00
Provided by: 22
      Temperature Precipitation Pressure Wind  
Today
01/22/2018
10:00 12:00 43°F 0.02 in 30.36 inHg Light breeze from south-southeast 5 mph
  12:00 18:00 43°F 0.02 in 30.36 inHg Light breeze from west-southwest 5 mph
  18:00 00:00 39°F   30.32 inHg Light air from northeast 2 mph
    (Click to enlarge)
meteogram

    Forecast for next 9 days

      Temperature Precip Pressure Wind  
Tuesday
01/23/2018
00:00 06:00 28°F   30.30 inHg Light breeze from east-northeast 6 mph
  06:00 12:00 27°F   30.26 inHg Light breeze from east-northeast 5 mph
  12:00 18:00 50°F   30.24 inHg Light air from southwest 2 mph
  18:00 00:00 41°F   30.22 inHg Light air from east 3 mph
      Temperature Precip Pressure Wind  
Wednesday
01/24/2018
00:00 06:00 32°F   30.20 inHg Light breeze from east-northeast 5 mph
  06:00 12:00 34°F   30.13 inHg Light breeze from east 5 mph
  12:00 18:00 50°F   30.06 inHg Gentle breeze from south-southwest 8 mph
  16:00 22:00 46°F 0.50 in 29.96 inHg Gentle breeze from south-southwest 9 mph
  22:00 04:00 34°F 0.24 in 30.09 inHg Gentle breeze from south-southeast 9 mph
      Temperature Precip Pressure Wind  
Thursday
01/25/2018
04:00 10:00 32°F 0.05 in 30.09 inHg Light breeze from south-southeast 6 mph
  10:00 16:00 34°F 0.27 in 30.13 inHg Gentle breeze from south 8 mph
  16:00 22:00 34°F 0.35 in 30.13 inHg Gentle breeze from south 8 mph
  22:00 04:00 28°F 0.06 in 30.22 inHg Light breeze from southeast 5 mph
      Temperature Precip Pressure Wind  
Friday
01/26/2018
04:00 10:00 30°F   30.31 inHg Light breeze from southeast 4 mph
  10:00 16:00 36°F   30.38 inHg Light air from east-southeast 1 mph
  16:00 22:00 37°F   30.31 inHg Light breeze from west-northwest 4 mph
  22:00 04:00 19°F   30.32 inHg Light breeze from east-northeast 5 mph
      Temperature Precip Pressure Wind  
Saturday
01/27/2018
04:00 10:00 19°F   30.34 inHg Light breeze from east-northeast 5 mph
  10:00 16:00 39°F   30.39 inHg Light air from northeast 2 mph
  16:00 22:00 45°F   30.31 inHg Light air from north 2 mph
  22:00 04:00 30°F   30.30 inHg Light breeze from east-northeast 6 mph
      Temperature Precip Pressure Wind  
Sunday
01/28/2018
04:00 10:00 30°F   30.25 inHg Light breeze from east-northeast 6 mph
  10:00 16:00 46°F   30.25 inHg Light air from east-northeast 3 mph
  16:00 22:00 54°F   30.15 inHg Calm from north-northwest 0 mph
  22:00 04:00 30°F   30.17 inHg Light breeze from east-northeast 6 mph
      Temperature Precip Pressure Wind  
Monday
01/29/2018
04:00 10:00 36°F   30.13 inHg Light breeze from east-northeast 6 mph
  10:00 16:00 52°F   30.16 inHg Light breeze from east 4 mph
  16:00 22:00 52°F   30.12 inHg Light air from south-southeast 3 mph
  22:00 04:00 39°F   30.15 inHg Light breeze from east 6 mph
      Temperature Precip Pressure Wind  
Tuesday
01/30/2018
04:00 10:00 39°F   30.14 inHg Light breeze from east 4 mph
  10:00 16:00 48°F   30.20 inHg Light air from southeast 3 mph
  16:00 22:00 52°F 0.04 in 30.15 inHg Light breeze from southwest 5 mph
  22:00 04:00 45°F   30.20 inHg Light air from south-southeast 3 mph
      Temperature Precip Pressure Wind  
Wednesday
01/31/2018
04:00 10:00 37°F   30.18 inHg Light breeze from east-northeast 4 mph
  10:00 16:00 46°F   30.19 inHg Light air from east-northeast 3 mph

NOAA Local Storm Report
3 MILES NORTH OF JOSEPH   ( More )
DATE
01/19/2018
TIME
6:00 AM
COUNTY
WALLOWA
STATE
OR
GEOGRAPHIC
45.39N 117.23W
SOURCE
TRAINED SPOTTER
SNOW MEASURED AT 2.5 INCH

NOAA Local Storm Report
SOUTHEAST OF JOSEPH   ( More )
DATE
01/19/2018
TIME
7:45 AM
COUNTY
WALLOWA
STATE
OR
GEOGRAPHIC
45.35N 117.22W
SOURCE
TRAINED SPOTTER
SNOW MEASURED AT 4.5 INCH
4. 5 inches fell in 14 hrs.
How Close Are We To this Month's Temperature Record ?
Updated Monday, Jan 22, 2018- 11:50:01 AM

Current Temperature: 43.1°F

January's High: Temperature Record 71.3°F - Set on Sat, Jan 24, 2015 - 3:19:00 PM
We are currently 28.2°F Less than this Month's record High

January's Low: Temperature Record 24.7°F - Set on Sun, Jan 13, 2013 - 7:29:00 AM
We are currently 18.4°F More than this Month's record Low

Weather History For Monday, January 22, 2018


On this Day - In Weather History ...
Data courtesy of weatherforyou.com
powered by Cumulus v1.9.3 (1059)
Ambient Weather VWS v14.00
Top Contact Website Map Copyright © 2007 - 2018 Foresthillweather.com Never base important decisions on this or any weather information obtained from the Internet